Home > Time Zones > World Clock > Weather > Russia > Ufa > Past weeks

Flag for Russia Weather past 2 weeks in Ufa, Russia

Now
16 °F

Passing clouds.


Feels Like: 10 °F
Forecast: 7 / 35 °F
Wind: 3 mph from Northwest

Location: Ufa

Current Time: Apr 1, 2015 at 4:56:48 AM

Latest Report: Apr 1, 2015 at 4:00 AM


Visibility: N/A

Pressure: 30.36 "Hg

Humidity: 73%

Dew point: 9 °F

Location of UfaLocation

Historic Weather in Ufa — Graph

°F

Ufa temperature yesterday

Maximum temperature yesterday: 37 °F (at 4:00 PM)
Minimum temperature yesterday: 7 °F (at 6:00 AM)
Average temperature yesterday: 23 °F

Past Weeks' High & Low Weather Summary

 TemperatureHumidityPressure
High43 °F (Mar 19, 6:00 PM)100% (Mar 19, 7:30 AM)30.95 "Hg (Mar 19, 7:30 AM)
Low3 °F (Mar 29, 6:00 AM)29% (Mar 29, 3:00 PM)29.45 "Hg (Mar 23, 7:30 AM)
Average25 °F71%30.31 "Hg
* Reported Mar 17 4:00 AM — Apr 1 4:00 AM, Ufa, Weather by CustomWeather, © 2015

Note: Actual official high and low records may vary slightly from our data, if they occured in-between our weather recording intervals... More about our weather records

Advertising

Ufa weather history for previous 24 hours

 ConditionsComfort  
Time TempWeatherWind HumidityBarometerVisibility
4:00 AM
Wed, Apr 1
16 °FPassing clouds.3 mph73%30.36 "HgN/A
3:30 AM16 °FPassing clouds.3 mph73%30.36 "HgN/A
3:00 AM16 °FPassing clouds.3 mph73%30.39 "HgN/A
2:30 AM18 °FPassing clouds.3 mph73%30.39 "HgN/A
2:00 AM16 °FPassing clouds.3 mph73%30.39 "HgN/A
1:30 AM19 °FPassing clouds.3 mph73%30.39 "HgN/A
1:00 AM18 °FClear.1 mph73%30.39 "Hg10 mi
12:30 AM19 °FPassing clouds.3 mph68%30.39 "HgN/A
12:00 AM21 °FPassing clouds.3 mph68%30.39 "HgN/A
11:30 PM
Tue, Mar 31
19 °FPassing clouds.3 mph68%30.42 "HgN/A
11:00 PM23 °FPassing clouds.3 mph63%30.42 "HgN/A
10:30 PM25 °FPassing clouds.3 mph59%30.42 "HgN/A
10:00 PM25 °FPassing clouds.3 mph63%30.42 "HgN/A
9:30 PM27 °FPassing clouds.3 mph59%30.45 "HgN/A
9:00 PM28 °FPassing clouds.3 mph55%30.45 "HgN/A
8:30 PM30 °FSunny.3 mph51%30.45 "Hg10 mi
8:00 PM30 °FPassing clouds.3 mph59%30.45 "HgN/A
7:30 PM34 °FSunny.6 mph48%30.45 "Hg10 mi
7:00 PM34 °FSunny.6 mph51%30.48 "Hg10 mi
6:30 PM36 °FSunny.8 mph52%30.48 "Hg10 mi
6:00 PM37 °FSunny.8 mph41%30.48 "Hg10 mi
5:30 PM37 °FSunny.8 mph38%30.51 "Hg10 mi
5:00 PM37 °FSunny.6 mph41%30.51 "Hg10 mi
4:30 PM37 °FPassing clouds.8 mph35%30.54 "HgN/A
4:00 PM37 °FPassing clouds.3 mph38%30.54 "HgN/A
3:30 PM36 °FPassing clouds.3 mph38%30.54 "HgN/A
3:00 PM36 °FPassing clouds.3 mph41%30.54 "HgN/A
2:30 PM34 °FPassing clouds.3 mph44%30.57 "HgN/A
2:00 PM34 °FPassing clouds.3 mph41%30.57 "HgN/A
1:30 PM32 °FPassing clouds.3 mph40%30.57 "HgN/A
1:00 PM30 °FSunny.No wind51%30.60 "Hg10 mi
12:30 PM30 °FSunny.No wind51%30.60 "Hg10 mi
12:00 PM28 °FSunny.No wind55%30.60 "Hg10 mi
11:30 AM27 °FSunny.No wind59%30.60 "Hg10 mi
11:00 AM23 °FSunny.No wind63%30.63 "Hg10 mi
10:30 AM21 °FSunny.1 mph63%30.63 "Hg10 mi
10:00 AM18 °FSunny.No wind68%30.63 "Hg10 mi
9:30 AM16 °FSunny.1 mph73%30.63 "Hg10 mi
9:00 AM12 °FSunny.1 mph79%30.63 "Hg10 mi
8:30 AM10 °FPassing clouds.3 mph79%30.63 "HgN/A
7:30 AM7 °FClear.3 mph85%30.63 "Hg10 mi
7:00 AM7 °FClear.3 mph85%30.63 "Hg10 mi
6:30 AM7 °FIce fog.1 mph85%30.63 "Hg2 mi
6:00 AM7 °FClear.3 mph92%30.63 "Hg10 mi
5:30 AM9 °FClear.3 mph85%30.66 "Hg10 mi
5:00 AM9 °FClear.6 mph85%30.66 "Hg10 mi
4:30 AM9 °FClear.3 mph92%30.66 "Hg10 mi
4:00 AM10 °FClear.3 mph85%30.66 "Hg10 mi
Weather by CustomWeather, © 2015

See weather overviewHow to use our weather pages